Location: Arborea
(39.7744°N, 8.5819°E)
Time: 02:24:06
(UTC+00:00)

USA 229 - Pass Details

Date: 29 May 2022
Orbit: 938 x 1274 km, 63.4° (Epoch: 24 May)

Event Time Altitude Azimuth Distance (km) Brightness Sun altitude
Rises 20:12:41 0° 327° (NNW) 3,881 8.4 -14.2°
Reaches altitude 10° 20:17:31 10° 357° (N) 3,010 6.8 -14.8°
Maximum altitude 20:20:12 12° 19° (NNE) 2,893 6.3 -15.2°
Drops below altitude 10° 20:22:58 10° 41° (NE) 3,101 6.2 -15.5°
Sets 20:28:08 0° 70° (ENE) 4,139 6.6 -16.2°
